Observations

BIA Manual Entry


Date Temp Humidity Rainfall Dew Point Wind Direction Wind Speed Wind Pressure Condition Visibility
2025-06-01 12:57:54 33 62 0.00 26 300 15.2 1011 Distant showers 20KM
2025-06-01 11:57:57 33 59 0.00 24 300 9.5 1012 Partly Cloudy (Day) 20KM
2025-06-01 11:02:25 32 65 0.00 25 220 9.5 1012 Partly Cloudy (Night) 20KM
2025-06-01 10:07:25 31 73 0.00 25 220 7.6 1013 Partly Cloudy (Day) 10 km
2025-06-01 09:08:08 29 80 0.00 25 170 5.7 1013 Partly Cloudy (Day) 10 km
2025-06-01 08:03:47 27 93 26 220 3.8 1012 Showers 15 KM
2025-06-01 05:59:27 27 92 25 260 1.9 1012 Partly Cloudy (Night) 10 KM
2025-06-01 04:57:02 27 93 26 180 3.8 1012 Partly Cloudy (Night) 10 KM
2025-06-01 04:02:04 27 92 26 160 3.8 1012 Partly Cloudy (Night) 10 KM
2025-06-01 02:59:52 27 91 26 210 3.8 1011 Partly Cloudy (Night) 10 KM
2025-06-01 01:59:43 27 90 0.0 26 140 2.0 1012 Partly Cloudy (Night) 10 KM
2025-06-01 00:58:48 28 88 0.0 26 140 1.0 1012 Partly Cloudy (Night) 10 KM
2025-05-31 23:57:48 28 88 0.0 25 100 2.0 1013 Partly Cloudy (Night) 10 KM
2025-05-31 22:59:10 28 85 0.0 26 080 1.0 1013 Partly Cloudy (Night) 10 KM
2025-05-31 22:00:08 29 83 0.0 25 000 00 1012 Partly Cloudy (Night) 10 KM
2025-05-31 20:59:00 29 79 0.00 25 250 3.8 1011 Partly Cloudy (Night) 10KM
2025-05-31 20:01:24 30 77 0.00 25 300 5.7 1011 Partly Cloudy (Night) 10KM
2025-05-31 19:00:47 30 74 0.00 25 290 7.6 1010 Partly Cloudy (Night) 10KM
2025-05-31 18:01:06 31 70 0.00 25 280 9.5 1010 Partly Cloudy (Day) 15KM
2025-05-31 17:02:31 32 65 0.0 24 290 11.4 1009 Partly Cloudy (Day) 20 KM
2025-05-31 16:01:56 32 62 0.0 24 280 17.1 1009 Partly Cloudy (Day) 20 KM
2025-05-31 15:01:52 33 64 0.0 25 260 11.4 1010 Partly Cloudy (Day) 20 KM
2025-05-31 14:06:12 33 64 0.0 25 290 17.1 1011 Distant showers 20 KM
2025-05-31 12:58:49 32 59 0.0 24 250 11.4 1012 Partly Cloudy (Day) 20 KM
2025-05-31 11:58:34 32 60 0.0 24 200 15.2 1012 Partly Cloudy (Day) 20 KM